1496793600.71,41985,16.94,73486.8,3.89,3.19,3.19,0,*7E
1496793601.93,41986,16.94,73484.0,3.89,3.19,3.15,0,*71
1496793603.17,41987,16.94,73488.5,3.89,3.15,3.15,0,*7C
1496793604.4,41988,16.94,73492.0,3.89,3.03,3.07,0,*77
1496793605.64,41989,16.94,73486.5,3.89,3.03,3.03,0,*72
1496793606.87,41990,16.94,73484.3,3.89,3.15,3.15,0,*7A
1496793608.13,41991,16.88,73466.0,3.87,3.03,3.07,0,*71
1496793609.38,41992,16.88,73478.5,3.87,3.07,3.15,0,*75
1496793610.62,41993,16.94,73472.5,3.89,3.15,3.15,0,*79
1496793611.86,41994,16.94,73464.8,3.89,3.07,3.03,0,*7A
1496793613.09,41995,16.94,73468.0,3.89,3.07,3.03,0,*7B
1496793614.33,41996,16.94,73482.5,3.89,3.15,3.15,0,*7C
1496793615.56,41997,16.94,73490.0,3.89,3.15,3.19,0,*71
1496793616.81,41998,16.94,73480.8,3.87,3.15,3.19,0,*70
1496793618.04,41999,16.88,73476.3,3.89,3.15,3.19,0,*7F
1496793619.3,42000,16.94,73476.3,3.87,3.07,3.15,0,*74
1496793620.56,42001,16.94,73486.8,3.87,3.07,3.07,0,*76
1496793621.81,42002,16.94,73486.5,3.87,3.15,3.15,0,*75
1496793623.05,42003,16.94,73480.3,3.89,3.15,3.07,0,*79
1496793624.25,42004,16.94,73468.0,3.89,2.95,3.03,0,*73
1496793625.45,42005,16.88,73458.8,3.87,2.91,2.91,0,*72
1496793626.7,42006,16.94,73480.0,3.87,3.03,3.03,0,*71
1496793627.94,42007,16.94,73498.0,3.89,3.07,3.07,0,*7E
1496793629.2,42008,16.94,73496.0,3.87,3.15,3.15,0,*7F
1496793630.46,42009,16.94,73478.8,3.87,3.15,3.15,0,*7E
1496793631.71,42010,16.94,73480.0,3.87,3.15,3.15,0,*76
1496793632.96,42011,16.94,73484.3,3.87,3.19,3.15,0,*7B
1496793634.2,42012,16.94,73488.8,3.87,3.19,3.23,0,*7D
1496793635.44,42013,16.94,73486.5,3.89,3.07,3.15,0,*78
1496793636.7,42014,16.88,73476.3,3.87,3.15,3.15,0,*72
1496793637.93,42015,16.94,73478.0,3.89,3.15,3.07,0,*7E
1496793639.18,42016,16.88,73472.3,3.87,3.19,3.15,0,*7C
1496793640.42,42017,16.88,73484.8,3.87,3.19,3.23,0,*78
1496793641.67,42018,16.94,73488.3,3.87,3.23,3.23,0,*7E
1496793642.91,42019,16.94,73494.5,3.87,3.19,3.23,0,*76
1496793644.14,42020,16.94,73476.3,3.89,3.19,3.15,0,*77
1496793645.4,42021,16.94,73472.8,3.87,3.15,3.15,0,*74
1496793646.66,42022,16.94,73478.3,3.87,3.07,3.15,0,*74
1496793647.91,42023,16.94,73480.0,3.87,3.15,3.15,0,*76
1496793649.15,42024,16.94,73478.3,3.87,3.19,3.19,0,*71
1496793650.39,42025,16.94,73474.3,3.87,3.19,3.19,0,*70
1496793651.64,42026,16.94,73482.3,3.87,3.23,3.23,0,*73
1496793652.89,42027,16.94,73476.3,3.87,3.23,3.23,0,*72
1496793654.11,42028,16.94,73472.0,3.89,3.19,3.19,0,*73
1496793655.37,42029,16.94,73472.8,3.87,3.15,3.15,0,*7C
1496793656.59,42030,16.94,73476.8,3.89,3.19,3.23,0,*73
1496793657.83,42031,16.94,73478.3,3.87,3.19,3.19,0,*75
1496793659.07,42032,16.88,73484.0,3.87,3.19,3.19,0,*76
1496793660.3,42033,16.88,73494.5,3.89,3.23,3.23,0,*79
1496793661.54,42034,16.94,73478.8,3.87,3.19,3.19,0,*70
1496793662.79,42035,16.94,73490.5,3.87,3.07,3.07,0,*71
1496793664.05,42036,16.94,73482.3,3.87,3.07,3.07,0,*72
1496793665.28,42037,16.94,73476.0,3.89,3.07,3.07,0,*7D
1496793666.54,42038,16.94,73470.3,3.87,3.15,3.15,0,*7C
1496793667.79,42039,16.94,73472.0,3.87,3.19,3.15,0,*71
1496793669.03,42040,16.94,73488.8,3.87,3.23,3.19,0,*7A
1496793670.26,42041,16.94,73498.3,3.87,3.29,3.23,0,*78
1496793671.46,42042,16.94,73500.5,3.87,3.29,3.29,0,*71
1496793672.66,42043,16.94,73492.8,3.87,3.29,3.29,0,*70
1496793673.86,42044,16.88,73498.3,3.89,3.29,3.23,0,*73
1496793675.11,42045,16.88,73472.5,3.87,3.23,3.19,0,*7F
1496793676.34,42046,16.88,73482.3,3.89,3.15,3.15,0,*7B
1496793677.58,42047,16.88,73488.3,3.87,3.19,3.23,0,*7D
1496793678.79,42048,16.88,73480.8,3.87,3.29,3.29,0,*7B
1496793679.97,42049,16.94,73472.5,3.89,3.29,3.29,0,*74
1496793681.21,42050,16.88,73478.5,3.87,3.19,3.19,0,*72
1496793682.44,42051,16.94,73484.3,3.89,3.15,3.19,0,*71
1496793683.66,42052,16.94,73482.8,3.89,3.19,3.23,0,*77
1496793684.9,42053,16.94,73482.5,3.89,3.15,3.15,0,*7F
1496793686.13,42054,16.94,73480.8,3.89,3.15,3.15,0,*78
1496793687.39,42055,16.94,73468.5,3.87,3.15,3.15,0,*77
1496793688.64,42056,16.94,73476.3,3.87,3.23,3.23,0,*74
1496793689.86,42057,16.94,73476.8,3.89,3.19,3.19,0,*7B
1496793691.1,42058,16.94,73488.0,3.89,3.15,3.15,0,*74
1496793692.32,42059,16.94,73498.0,3.89,3.19,3.19,0,*75
1496793693.54,42060,16.94,73486.0,3.89,3.19,3.19,0,*7F
1496793694.78,42061,16.88,73466.8,3.89,3.15,3.15,0,*7E
1496793696.01,42062,16.88,73474.8,3.89,3.15,3.15,0,*7D
1496793697.27,42063,16.88,73474.3,3.87,3.15,3.15,0,*72
1496793698.52,42064,16.94,73464.5,3.87,3.23,3.23,0,*75
1496793699.74,42065,16.94,73468.8,3.89,3.19,3.19,0,*7A
1496793701.0,42066,16.88,73466.3,3.87,3.15,3.15,0,*77
1496793702.24,42067,16.94,73474.5,3.89,3.15,3.15,0,*78
1496793703.47,42068,16.88,73464.0,3.89,3.15,3.15,0,*77
1496793704.72,42069,16.94,73470.8,3.87,3.19,3.15,0,*74
1496793705.95,42070,16.88,73466.8,3.89,3.19,3.15,0,*72
1496793707.17,42071,16.94,73470.8,3.89,3.19,3.19,0,*7F
1496793708.41,42072,16.88,73464.0,3.87,3.19,3.19,0,*72
1496793709.65,42073,16.94,73476.0,3.87,3.19,3.19,0,*73
1496793710.89,42074,16.94,73478.0,3.87,3.19,3.19,0,*74
1496793712.12,42075,16.94,73486.0,3.89,3.19,3.15,0,*77
1496793713.35,42076,16.88,73484.3,3.89,3.19,3.15,0,*74
1496793714.59,42077,16.94,73486.0,3.87,3.19,3.23,0,*7E
1496793715.82,42078,16.88,73484.5,3.89,3.23,3.23,0,*76
1496793717.06,42079,16.88,73484.0,3.87,3.19,3.23,0,*70
1496793718.3,42080,16.88,73488.8,3.87,3.19,3.19,0,*7F
1496793719.52,42081,16.94,73492.5,3.89,3.19,3.19,0,*70
1496793720.74,42082,16.94,73488.3,3.89,3.19,3.19,0,*73
1496793721.98,42083,16.94,73492.0,3.87,3.19,3.19,0,*7C
1496793723.22,42084,16.94,73498.0,3.87,3.19,3.19,0,*7B
1496793724.46,42085,16.88,73496.8,3.87,3.19,3.23,0,*73
1496793725.68,42086,16.94,73502.0,3.89,3.19,3.23,0,*7E
1496793726.91,42087,16.88,73498.0,3.89,3.23,3.23,0,*76
1496793728.14,42088,16.88,73500.0,3.89,3.23,3.23,0,*79
1496793729.36,42089,16.94,73504.3,3.89,3.23,3.23,0,*78
1496793730.56,42090,16.88,73502.3,3.89,3.33,3.29,0,*7B
1496793731.77,42091,16.88,73504.3,3.89,3.33,3.29,0,*7A
1496793732.97,42092,16.88,73500.0,3.89,3.33,3.29,0,*79
1496793734.19,42093,16.88,73488.0,3.89,3.23,3.19,0,*7A
1496793735.41,42094,16.94,73492.5,3.89,3.19,3.23,0,*7D
1496793736.63,42095,16.88,73492.3,3.89,3.19,3.19,0,*75
1496793737.86,42096,16.88,73484.5,3.89,3.19,3.23,0,*7F
1496793739.07,42097,16.88,73482.5,3.89,3.19,3.19,0,*77
1496793740.32,42098,16.88,73480.0,3.87,3.19,3.23,0,*7F
1496793741.56,42099,16.88,73480.3,3.87,3.19,3.23,0,*7E
1496793742.78,42100,16.88,73480.0,3.89,3.23,3.23,0,*78
1496793744.01,42101,16.94,73484.5,3.89,3.23,3.23,0,*79
1496793745.23,42102,16.88,73484.5,3.89,3.19,3.23,0,*73
1496793746.45,42103,16.88,73484.0,3.89,3.19,3.23,0,*72
1496793747.66,42104,16.88,73494.3,3.89,3.23,3.29,0,*76
1496793748.89,42105,16.88,73504.8,3.89,3.23,3.23,0,*7D
1496793750.11,42106,16.88,73488.0,3.89,3.19,3.19,0,*7E
1496793751.35,42107,16.88,73480.3,3.89,3.15,3.15,0,*7F
1496793752.58,42108,16.94,73466.3,3.89,3.15,3.07,0,*73
1496793753.82,42109,16.88,73462.3,3.89,3.15,3.15,0,*71
1496793755.08,42110,16.88,73444.0,3.87,3.15,3.15,0,*77
1496793756.31,42111,16.88,73438.0,3.89,3.07,3.07,0,*78
1496793757.54,42112,16.88,73450.0,3.89,3.15,3.07,0,*78
1496793758.78,42113,16.88,73450.5,3.89,3.15,3.19,0,*76
1496793760.01,42114,16.88,73448.3,3.89,3.15,3.19,0,*71
1496793761.24,42115,16.94,73402.5,3.89,3.07,3.07,0,*7C
1496793762.47,42116,16.88,73402.8,3.89,3.03,3.07,0,*7B
1496793763.73,42117,16.88,73406.3,3.87,3.15,3.07,0,*73
1496793764.93,42118,16.88,73404.0,3.89,2.95,3.03,0,*7F
1496793766.16,42119,16.94,73426.5,3.87,3.03,2.95,0,*70
1496793767.41,42120,16.88,73428.0,3.87,3.03,3.03,0,*74
1496793768.65,42121,16.88,73438.8,3.89,3.15,3.15,0,*7B
1496793769.89,42122,16.88,73438.0,3.89,3.15,3.15,0,*78
1496793771.14,42123,16.88,73458.5,3.87,3.07,3.07,0,*77
1496793772.4,42124,16.88,73456.0,3.87,3.15,3.15,0,*70
1496793773.63,42125,16.88,73462.3,3.89,3.15,3.19,0,*73
1496793774.89,42126,16.88,73466.5,3.87,3.15,3.15,0,*72
1496793776.12,42127,16.88,73484.5,3.89,3.15,3.15,0,*7D
1496793777.37,42128,16.88,73482.3,3.87,3.19,3.23,0,*75
1496793778.55,42129,16.94,73482.3,3.89,3.29,3.29,0,*73
1496793779.77,42130,16.88,73476.3,3.89,3.23,3.23,0,*7B
1496793781.01,42131,16.88,73486.0,3.89,3.15,3.15,0,*7A
1496793782.26,42132,16.88,73490.8,3.87,3.15,3.19,0,*7B
1496793783.48,42133,16.94,73502.0,3.89,3.19,3.19,0,*78
1496793784.73,42134,16.88,73500.0,3.87,3.23,3.23,0,*71
1496793785.96,42135,16.88,73498.3,3.87,3.23,3.29,0,*7A
1496793787.2,42136,16.94,73512.5,3.87,3.23,3.19,0,*7A
1496793788.42,42137,16.88,73514.3,3.89,3.19,3.23,0,*75
1496793789.61,42138,16.88,73492.3,3.89,3.29,3.29,0,*73
1496793790.83,42139,16.88,73504.3,3.89,3.19,3.23,0,*7B
1496793792.05,42140,16.88,73506.5,3.89,3.19,3.23,0,*75
1496793793.27,42141,16.88,73496.5,3.89,3.23,3.19,0,*74
1496793794.5,42142,16.88,73502.0,3.89,3.23,3.23,0,*7E
1496793795.72,42143,16.88,73504.8,3.89,3.19,3.19,0,*7F
1496793796.96,42144,16.88,73504.8,3.87,3.19,3.23,0,*7F
1496793798.18,42145,16.88,73502.3,3.89,3.19,3.23,0,*70
1496793799.4,42146,16.88,73498.0,3.89,3.19,3.19,0,*7A
1496793800.62,42147,16.88,73504.5,3.89,3.19,3.19,0,*7B
1496793801.84,42148,16.88,73500.5,3.89,3.19,3.19,0,*74
1496793803.06,42149,16.88,73502.5,3.89,3.19,3.19,0,*75
1496793804.3,42150,16.88,73498.8,3.89,3.15,3.19,0,*71
1496793805.52,42151,16.88,73502.8,3.89,3.19,3.19,0,*7C
1496793806.74,42152,16.88,73502.3,3.89,3.19,3.19,0,*7F
1496793807.95,42153,16.88,73502.0,3.89,3.19,3.19,0,*7E
1496793809.19,42154,16.88,73498.8,3.89,3.15,3.19,0,*75
1496793810.44,42155,16.88,73502.0,3.87,3.15,3.19,0,*7A
1496793811.66,42156,16.88,73504.8,3.89,3.19,3.23,0,*72
1496793812.9,42157,16.88,73500.5,3.87,3.19,3.19,0,*74
1496793814.13,42158,16.88,73496.8,3.89,3.15,3.19,0,*79
1496793815.37,42159,16.94,73502.3,3.89,3.15,3.15,0,*74
1496793816.59,42160,16.88,73500.5,3.89,3.19,3.19,0,*7E
1496793817.81,42161,16.88,73496.5,3.89,3.19,3.19,0,*7F
1496793819.03,42162,16.88,73496.3,3.89,3.19,3.19,0,*7C
1496793820.2,42163,16.88,73492.8,3.93,3.25,3.29,0,*7A
1496793821.4,42164,16.88,73494.0,3.93,3.25,3.23,0,*77
1496793822.64,42165,16.88,73498.0,3.87,3.23,3.19,0,*7C
1496793823.84,42166,16.88,73506.5,3.93,3.23,3.25,0,*75
1496793825.02,42167,16.88,73500.5,3.89,3.29,3.29,0,*79
1496793826.2,42168,16.88,73504.0,3.89,3.29,3.29,0,*76
1496793827.43,42169,16.88,73502.0,3.89,3.19,3.19,0,*77
1496793828.65,42170,16.88,73504.0,3.89,3.23,3.23,0,*7F
1496793829.88,42171,16.88,73506.0,3.89,3.23,3.23,0,*7E
1496793831.1,42172,16.88,73498.8,3.93,3.23,3.23,0,*76
1496793832.32,42173,16.88,73496.5,3.93,3.23,3.23,0,*77
1496793833.54,42174,16.88,73510.0,3.93,3.23,3.23,0,*70
1496793834.72,42175,16.88,73518.0,3.93,3.25,3.25,0,*71
1496793835.92,42176,16.88,73514.3,3.93,3.25,3.33,0,*75
1496793837.14,42177,16.88,73512.0,3.89,3.23,3.23,0,*78
1496793838.36,42178,16.88,73502.0,3.89,3.19,3.19,0,*77
1496793839.58,42179,16.88,73496.0,3.89,3.19,3.19,0,*76
1496793840.81,42180,16.88,73494.5,3.93,3.23,3.23,0,*7B
1496793842.03,42181,16.88,73490.8,3.89,3.23,3.23,0,*71
1496793843.25,42182,16.88,73492.5,3.93,3.23,3.23,0,*79
1496793844.47,42183,16.88,73494.3,3.93,3.23,3.23,0,*78
1496793845.69,42184,16.88,73490.8,3.89,3.19,3.19,0,*74
1496793846.91,42185,16.88,73492.8,3.89,3.19,3.19,0,*75
1496793848.13,42186,16.88,73488.0,3.89,3.19,3.19,0,*76
1496793849.36,42187,16.88,73486.8,3.89,3.23,3.19,0,*7E
1496793850.59,42188,16.88,73480.0,3.89,3.23,3.23,0,*78
1496793851.79,42189,16.88,73480.8,3.89,3.23,3.29,0,*73
1496793852.98,42190,16.88,73494.5,3.89,3.29,3.29,0,*71
1496793854.2,42191,16.88,73494.0,3.93,3.37,3.33,0,*7F
1496793855.41,42192,16.88,73492.0,3.89,3.41,3.29,0,*7D
1496793856.63,42193,16.88,73498.5,3.93,3.33,3.37,0,*7D
1496793857.85,42194,16.88,73492.5,3.93,3.37,3.37,0,*7E
1496793859.07,42195,16.88,73496.0,3.93,3.37,3.45,0,*7A
1496793860.3,42196,16.88,73498.5,3.93,3.37,3.45,0,*79
1496793861.52,42197,16.88,73498.3,3.93,3.37,3.45,0,*78
1496793862.74,42198,16.88,73496.0,3.93,3.37,3.45,0,*77
1496793863.97,42199,16.88,73496.8,3.93,3.45,3.45,0,*73
1496793865.19,42200,16.88,73500.5,3.93,3.49,3.45,0,*7C
1496793866.44,42201,16.88,73500.0,3.95,3.37,3.37,0,*77
1496793867.63,42202,16.88,73498.5,3.93,3.25,3.23,0,*74
1496793868.83,42203,16.88,73498.5,3.95,3.25,3.25,0,*75
1496793870.03,42204,16.88,73494.5,3.95,3.29,3.25,0,*7E
1496793871.26,42205,16.88,73498.0,3.93,3.37,3.33,0,*71
1496793872.46,42206,16.88,73488.0,3.95,3.25,3.29,0,*7C
1496793873.68,42207,16.88,73484.3,3.93,3.23,3.23,0,*77
1496793874.9,42208,16.88,73490.8,3.93,3.23,3.23,0,*78
1496793876.07,42209,16.88,73494.5,3.93,3.25,3.29,0,*75
1496793877.33,42210,16.88,73490.5,3.95,3.41,3.41,0,*77
1496793878.58,42211,16.88,73488.5,3.95,3.37,3.41,0,*77
1496793879.84,42212,16.88,73488.5,3.95,3.41,3.41,0,*75
1496793881.1,42213,16.88,73486.5,3.95,3.37,3.41,0,*75
1496793882.32,42214,16.88,73488.3,3.93,3.37,3.37,0,*75
1496793883.57,42215,16.88,73490.0,3.95,3.37,3.41,0,*73
1496793884.82,42216,16.88,73504.0,3.95,3.49,3.49,0,*71
1496793886.07,42217,16.88,73504.5,3.95,3.45,3.49,0,*7C
1496793887.31,42218,16.88,73500.5,3.95,3.49,3.49,0,*7F
1496793888.57,42219,16.88,73512.0,3.95,3.41,3.49,0,*76
1496793889.78,42220,16.88,73502.0,3.93,3.33,3.37,0,*76
1496793891.04,42221,16.88,73488.0,3.97,3.41,3.37,0,*76
1496793892.3,42222,16.88,73486.0,3.97,3.41,3.37,0,*75
1496793893.56,42223,16.88,73486.5,3.97,3.37,3.41,0,*74
1496793894.83,42224,16.88,73488.5,3.97,3.37,3.41,0,*73
1496793896.05,42225,16.88,73494.8,3.95,3.37,3.29,0,*7E
1496793897.27,42226,16.88,73492.0,3.95,3.37,3.29,0,*7D
1496793898.49,42227,16.88,73494.0,3.93,3.23,3.23,0,*75
1496793899.74,42228,16.88,73492.3,3.95,3.37,3.37,0,*7C
1496793900.97,42229,16.88,73488.8,3.99,3.45,3.45,0,*71
1496793902.24,42230,16.88,73490.8,3.97,3.41,3.41,0,*77
1496793903.5,42231,16.88,73492.5,3.97,3.41,3.37,0,*77
1496793904.76,42232,16.88,73494.0,3.97,3.41,3.49,0,*7D
1496793906.02,42233,16.88,73488.8,3.97,3.37,3.37,0,*74
1496793907.27,42234,16.88,73496.8,3.97,3.37,3.37,0,*73
1496793908.53,42235,16.88,73494.8,3.97,3.37,3.37,0,*72
1496793909.78,42236,16.88,73500.0,3.97,3.41,3.37,0,*70
1496793911.05,42237,16.88,73502.5,3.97,3.41,3.41,0,*70
1496793912.31,42238,16.88,73500.5,3.97,3.41,3.37,0,*7E
1496793913.57,42239,16.88,73494.5,3.97,3.41,3.49,0,*76
1496793914.83,42240,16.88,73514.0,3.97,3.37,3.41,0,*71
1496793916.1,42241,16.88,73502.5,3.97,3.41,3.41,0,*71
1496793917.35,42242,16.88,73488.5,3.97,3.37,3.37,0,*72
1496793918.58,42243,16.88,73494.5,3.97,3.25,3.37,0,*70
1496793919.79,42244,16.88,73504.5,3.97,3.29,3.29,0,*74
1496793921.03,42245,16.88,73504.0,3.97,3.29,3.37,0,*7A
1496793922.23,42246,16.88,73512.0,3.97,3.29,3.25,0,*7A
1496793923.44,42247,16.88,73506.0,3.97,3.25,3.25,0,*77
1496793924.65,42248,16.88,73494.5,3.97,3.25,3.25,0,*78
1496793925.86,42249,16.88,73492.0,3.97,3.25,3.25,0,*79
1496793927.07,42250,16.88,73490.5,3.97,3.25,3.29,0,*7D
1496793928.3,42251,16.88,73490.5,3.97,3.37,3.29,0,*7F
1496793929.53,42252,16.88,73508.0,3.97,3.29,3.37,0,*7C
1496793930.78,42253,16.88,73514.0,3.97,3.37,3.37,0,*72
1496793931.99,42254,16.88,73514.5,3.97,3.25,3.25,0,*75
1496793933.18,42255,16.88,73504.3,3.99,3.25,3.29,0,*76
1496793934.44,42256,16.88,73490.0,3.97,3.15,3.23,0,*72
1496793935.69,42257,16.88,73486.0,3.97,3.23,3.23,0,*76
1496793936.95,42258,16.88,73494.3,3.97,3.23,3.23,0,*79
1496793938.13,42259,16.88,73488.5,3.99,3.25,3.29,0,*7A
1496793939.34,42260,16.88,73486.8,3.97,3.25,3.25,0,*72
1496793940.55,42261,16.88,73490.0,3.97,3.25,3.25,0,*73
1496793941.77,42262,16.88,73480.0,3.97,3.25,3.23,0,*76
1496793942.98,42263,16.88,73486.5,3.97,3.29,3.25,0,*7D
1496793944.23,42264,16.88,73482.5,3.95,3.37,3.37,0,*74
1496793945.43,42265,16.88,73486.5,3.95,3.29,3.29,0,*75
1496793946.63,42266,16.88,73490.0,3.95,3.25,3.29,0,*7A
1496793947.83,42267,16.88,73492.3,3.95,3.29,3.29,0,*77
1496793949.03,42268,16.88,73492.5,3.95,3.29,3.29,0,*78
1496793950.3,42269,16.88,73486.3,3.97,3.41,3.41,0,*7B
1496793951.51,42270,16.88,73490.3,3.97,3.29,3.29,0,*73
1496793952.74,42271,16.88,73484.3,3.97,3.37,3.29,0,*7D
1496793953.97,42272,16.88,73486.0,3.99,3.33,3.33,0,*7F
1496793955.18,42273,16.88,73476.0,3.97,3.25,3.25,0,*70
1496793956.43,42274,16.88,73488.8,3.97,3.23,3.23,0,*77
1496793957.64,42275,16.88,73490.8,3.97,3.25,3.25,0,*76
1496793958.87,42276,16.88,73480.0,3.97,3.25,3.37,0,*76
1496793960.06,42277,16.88,73478.0,3.99,3.29,3.25,0,*76
1496793961.26,42278,16.88,73484.8,3.97,3.29,3.29,0,*7B
1496793962.47,42279,16.88,73488.5,3.97,3.25,3.29,0,*76
1496793963.7,42280,16.88,73492.3,3.97,3.25,3.23,0,*7A
1496793964.93,42281,16.88,73492.8,3.97,3.25,3.23,0,*7B
1496793966.14,42282,16.88,73498.3,3.97,3.25,3.25,0,*7E
1496793967.34,42283,16.88,73496.8,3.97,3.25,3.25,0,*7F
1496793968.55,42284,16.88,73500.5,3.97,3.25,3.29,0,*74
1496793969.79,42285,16.88,73502.8,3.99,3.33,3.41,0,*72
1496793971.0,42286,16.88,73500.3,3.97,3.25,3.29,0,*76
1496793972.21,42287,16.88,73504.8,3.97,3.29,3.29,0,*7B
1496793973.41,42288,16.88,73502.5,3.97,3.29,3.25,0,*78
1496793974.67,42289,16.88,73504.0,3.97,3.23,3.23,0,*75
1496793975.88,42290,16.88,73490.3,3.97,3.25,3.25,0,*7D
1496793977.08,42291,16.88,73490.5,3.97,3.25,3.25,0,*7C
1496793978.29,42292,16.88,73486.5,3.97,3.29,3.25,0,*73
1496793979.55,42293,16.88,73488.8,3.97,3.41,3.37,0,*7F
1496793980.81,42294,16.88,73492.0,3.97,3.37,3.41,0,*78
1496793982.02,42295,16.88,73506.5,3.97,3.29,3.29,0,*78
1496793983.23,42296,16.88,73498.5,3.97,3.25,3.25,0,*7B
1496793984.44,42297,16.88,73484.5,3.97,3.25,3.25,0,*7A
1496793985.65,42298,16.88,73494.0,3.97,3.25,3.25,0,*75
1496793986.85,42299,16.88,73510.8,3.97,3.29,3.29,0,*74
1496793988.09,42300,16.88,73518.0,3.97,3.29,3.37,0,*7A
1496793989.29,42301,16.88,73514.5,3.97,3.29,3.29,0,*74
1496793990.5,42302,16.88,73516.8,3.99,3.33,3.29,0,*72
1496793991.71,42303,16.88,73498.3,3.97,3.25,3.25,0,*76
1496793992.92,42304,16.88,73482.0,3.97,3.25,3.29,0,*7D
1496793994.1,42305,16.88,73486.0,3.99,3.29,3.29,0,*7E
1496793995.31,42306,16.88,73488.5,3.97,3.25,3.25,0,*73
1496793996.52,42307,16.88,73500.3,3.97,3.25,3.25,0,*72
1496793997.75,42308,16.88,73492.5,3.97,3.23,3.25,0,*7B
1496793999.01,42309,16.88,73504.3,3.97,3.23,3.23,0,*7C
1496794000.26,42310,16.88,73496.5,3.97,3.23,3.23,0,*74
1496794001.48,42311,16.88,73494.8,3.95,3.25,3.23,0,*71
1496794002.69,42312,16.88,73506.8,3.97,3.29,3.29,0,*76
1496794003.95,42313,16.88,73502.3,3.97,3.23,3.23,0,*77
1496794005.21,42314,16.88,73482.0,3.97,3.15,3.15,0,*70
1496794006.47,42315,16.88,73460.0,3.97,3.03,3.11,0,*72
1496794007.72,42316,16.88,73480.5,3.95,3.23,3.23,0,*70
1496794008.96,42317,16.88,73486.5,3.95,3.23,3.23,0,*71
1496794010.22,42318,16.88,73492.0,3.95,3.23,3.15,0,*7B
1496794011.46,42319,16.88,73496.8,3.95,3.23,3.23,0,*7F
1496794012.71,42320,16.88,73498.5,3.95,3.23,3.23,0,*75
1496794013.96,42321,16.88,73498.8,3.95,3.23,3.15,0,*71
1496794015.21,42322,16.88,73504.3,3.95,3.23,3.23,0,*77
1496794016.41,42323,16.88,73508.5,3.95,3.25,3.25,0,*76
1496794017.59,42324,16.88,73504.0,3.93,3.25,3.29,0,*7B
1496794018.79,42325,16.88,73508.0,3.95,3.29,3.29,0,*70
1496794019.99,42326,16.88,73508.0,3.95,3.29,3.25,0,*7F
1496794021.19,42327,16.88,73518.8,3.95,3.25,3.25,0,*72
1496794022.41,42328,16.88,73516.3,3.95,3.29,3.37,0,*72
1496794023.66,42329,16.88,73512.8,3.95,3.37,3.37,0,*7C
1496794024.88,42330,16.88,73514.8,3.95,3.25,3.37,0,*77
1496794026.13,42331,16.88,73516.5,3.95,3.41,3.37,0,*74
1496794027.39,42332,16.88,73514.3,3.97,3.37,3.41,0,*75
1496794028.64,42333,16.88,73510.5,3.95,3.37,3.37,0,*77
1496794029.89,42334,16.88,73504.0,3.97,3.37,3.37,0,*72
1496794031.15,42335,16.88,73496.8,3.97,3.37,3.37,0,*73
1496794032.4,42336,16.88,73498.5,3.97,3.37,3.37,0,*70
1496794033.64,42337,16.88,73504.3,3.97,3.37,3.29,0,*7E
1496794034.87,42338,16.88,73502.3,3.99,3.41,3.45,0,*74
1496794036.13,42339,16.88,73494.8,3.97,3.37,3.37,0,*7F
1496794037.34,42340,16.88,73496.5,3.97,3.25,3.29,0,*7D
1496794038.55,42341,16.88,73498.5,3.97,3.29,3.29,0,*70
1496794039.78,42342,16.88,73502.5,3.97,3.29,3.37,0,*7C
1496794041.04,42343,16.88,73508.5,3.97,3.41,3.37,0,*73
1496794042.3,42344,16.88,73512.8,3.97,3.41,3.41,0,*75
1496794043.54,42345,16.88,73492.3,3.97,3.25,3.41,0,*76
1496794044.75,42346,16.88,73496.5,3.97,3.29,3.29,0,*77
1496794046.0,42347,16.88,73500.5,3.97,3.37,3.37,0,*76
1496794047.19,42348,16.88,73504.5,3.99,3.29,3.29,0,*77
1496794048.45,42349,16.88,73502.5,3.97,3.37,3.41,0,*79
1496794049.69,42350,16.88,73496.8,3.99,3.41,3.45,0,*7A
1496794050.94,42351,16.88,73494.3,3.97,3.37,3.37,0,*71
1496794052.2,42352,16.88,73510.5,3.97,3.37,3.37,0,*72
1496794053.44,42353,16.88,73506.8,3.99,3.41,3.45,0,*79
1496794054.65,42354,16.88,73508.0,3.97,3.25,3.29,0,*78
1496794055.86,42355,16.88,73504.5,3.99,3.29,3.33,0,*70
1496794057.06,42356,16.88,73506.0,3.97,3.29,3.29,0,*76
1496794058.3,42357,16.88,73502.3,3.97,3.37,3.29,0,*78
1496794059.5,42358,16.88,73500.0,3.97,3.25,3.25,0,*78
1496794060.71,42359,16.88,73508.5,3.97,3.29,3.29,0,*79
1496794061.92,42360,16.88,73518.0,3.97,3.25,3.25,0,*73
1496794063.13,42361,16.88,73510.5,3.97,3.25,3.25,0,*72
1496794064.4,42362,16.88,73506.0,3.97,3.15,3.15,0,*71
1496794065.65,42363,16.88,73494.0,3.97,3.11,3.11,0,*70
1496794066.92,42364,16.88,73486.3,3.97,3.15,3.11,0,*73
1496794068.18,42365,16.88,73486.3,3.97,3.15,3.15,0,*76
1496794069.44,42366,16.88,73490.3,3.97,3.23,3.23,0,*75
1496794070.64,42367,16.88,73494.0,3.97,3.25,3.25,0,*74
1496794071.91,42368,16.88,73490.3,3.97,3.15,3.11,0,*7F
1496794073.14,42369,16.88,73476.8,3.97,3.23,3.25,0,*7C
1496794074.35,42370,16.88,73480.0,3.97,3.25,3.29,0,*7E
1496794075.56,42371,16.88,73490.3,3.97,3.25,3.25,0,*73
1496794076.77,42372,16.88,73488.0,3.97,3.25,3.25,0,*70
1496794078.0,42373,16.88,73492.5,3.97,3.23,3.25,0,*77
1496794079.21,42374,16.88,73492.3,3.97,3.29,3.25,0,*7A
1496794080.42,42375,16.88,73496.5,3.97,3.29,3.29,0,*77
1496794081.63,42376,16.88,73508.3,3.97,3.25,3.29,0,*78
1496794082.88,42377,16.88,73514.8,3.97,3.37,3.37,0,*75
1496794084.14,42378,16.88,73516.3,3.97,3.37,3.41,0,*7B
1496794085.35,42379,16.88,73510.3,3.97,3.29,3.29,0,*7B
1496794086.58,42380,16.88,73494.8,3.97,3.25,3.23,0,*7B
1496794087.84,42381,16.88,73482.3,3.97,3.11,3.15,0,*78
1496794089.1,42382,16.88,73482.5,3.97,3.11,3.15,0,*7B
1496794090.36,42383,16.88,73484.5,3.95,3.11,3.15,0,*78
1496794091.62,42384,16.88,73494.3,3.97,3.15,3.23,0,*7C
1496794092.86,42385,16.88,73502.3,3.95,3.23,3.23,0,*7A
1496794094.06,42386,16.88,73512.5,3.95,3.25,3.25,0,*79
1496794095.27,42387,16.88,73512.5,3.95,3.29,3.29,0,*78
1496794096.46,42388,16.88,73512.5,3.95,3.25,3.29,0,*7B
1496794097.66,42389,16.88,73502.8,3.95,3.25,3.29,0,*7A
1496794098.87,42390,16.88,73506.0,3.95,3.29,3.29,0,*7E
1496794100.12,42391,16.88,73504.0,3.95,3.37,3.41,0,*7E
1496794101.34,42392,16.88,73500.5,3.95,3.37,3.29,0,*73
1496794102.55,42393,16.88,73500.0,3.97,3.25,3.29,0,*73
1496794103.76,42394,16.88,73502.0,3.97,3.29,3.29,0,*78
1496794104.99,42395,16.88,73500.3,3.97,3.29,3.37,0,*76
1496794106.25,42396,16.88,73500.3,3.97,3.41,3.37,0,*7B
1496794107.49,42397,16.88,73506.3,3.99,3.45,3.41,0,*71
1496794108.7,42398,16.88,73504.8,3.97,3.29,3.25,0,*78
1496794109.9,42399,16.88,73500.0,3.97,3.25,3.25,0,*75
1496794111.16,42400,16.88,73508.5,3.97,3.23,3.23,0,*72
1496794112.41,42401,16.88,73500.5,3.97,3.23,3.23,0,*73
1496794113.68,42402,16.88,73498.8,3.97,3.15,3.15,0,*70
1496794114.94,42403,16.88,73506.0,3.97,3.15,3.11,0,*75
1496794116.18,42404,16.88,73500.3,3.97,3.23,3.25,0,*70
1496794117.43,42405,16.88,73500.3,3.97,3.23,3.23,0,*77
1496794118.64,42406,16.88,73498.8,3.97,3.25,3.25,0,*74
1496794119.84,42407,16.88,73494.5,3.95,3.25,3.25,0,*77
1496794121.06,42408,16.88,73494.8,3.95,3.25,3.23,0,*7E
1496794122.31,42409,16.88,73484.0,3.95,3.23,3.23,0,*79
1496794123.55,42410,16.88,73490.3,3.95,3.23,3.23,0,*71
1496794124.78,42411,16.88,73492.0,3.95,3.23,3.25,0,*76
1496794126.03,42412,16.88,73480.0,3.95,3.03,3.15,0,*74
1496794127.27,42413,16.88,73472.5,3.97,2.99,3.03,0,*72
1496794128.53,42414,16.88,73486.8,3.97,3.11,3.11,0,*77
1496794129.78,42415,16.88,73488.8,3.95,3.15,3.23,0,*71
1496794131.02,42416,16.88,73490.0,3.95,3.23,3.23,0,*77
1496794132.27,42417,16.88,73484.5,3.95,3.23,3.23,0,*76
1496794133.52,42418,16.88,73458.5,3.95,3.15,3.23,0,*7C
1496794134.77,42419,16.88,73462.8,3.95,3.23,3.23,0,*78
1496794136.01,42420,16.88,73472.5,3.95,3.23,3.23,0,*72
1496794137.27,42421,16.88,73474.5,3.95,3.15,3.15,0,*73